TimeEST,TemperatureF,Dew PointF,Humidity,Sea Level PressureIn,VisibilityMPH,Wind Direction,Wind SpeedMPH,Gust SpeedMPH,PrecipitationIn,Events,Conditions,WindDirDegrees,DateUTC
12:15 AM,26.2,23.4,89,30.36,10.0,Calm,Calm,-,N/A,,Clear,0,2013-01-05 05:15:00
12:35 AM,25.7,23.4,91,30.35,10.0,NNE,4.6,-,N/A,,Clear,20,2013-01-05 05:35:00
12:55 AM,28.0,22.8,81,30.36,10.0,Calm,Calm,-,N/A,,Clear,0,2013-01-05 05:55:00
1:15 AM,25.2,22.1,88,30.36,10.0,Calm,Calm,-,N/A,,Clear,0,2013-01-05 06:15:00
1:35 AM,25.5,22.6,89,30.34,10.0,Calm,Calm,-,N/A,,Clear,0,2013-01-05 06:35:00
1:55 AM,25.3,22.1,87,30.34,10.0,Calm,Calm,-,N/A,,Clear,0,2013-01-05 06:55:00
2:15 AM,26.6,22.8,86,30.34,10.0,Calm,Calm,-,N/A,,Clear,0,2013-01-05 07:15:00
2:35 AM,24.6,21.7,89,30.33,10.0,Calm,Calm,-,N/A,,Clear,0,2013-01-05 07:35:00
2:55 AM,24.1,21.9,91,30.34,10.0,Calm,Calm,-,N/A,,Clear,0,2013-01-05 07:55:00
3:15 AM,23.2,21.6,94,30.34,10.0,Calm,Calm,-,N/A,,Clear,0,2013-01-05 08:15:00
3:35 AM,23.4,21.7,94,30.33,10.0,Calm,Calm,-,N/A,,Clear,0,2013-01-05 08:35:00
3:55 AM,24.8,23.0,93,30.33,10.0,Calm,Calm,-,N/A,,Clear,0,2013-01-05 08:55:00
4:15 AM,23.5,21.2,91,30.33,10.0,Calm,Calm,-,N/A,,Clear,0,2013-01-05 09:15:00
4:35 AM,22.6,21.2,94,30.33,10.0,Calm,Calm,-,N/A,,Clear,0,2013-01-05 09:35:00
4:55 AM,21.6,19.9,93,30.33,10.0,Calm,Calm,-,N/A,,Clear,0,2013-01-05 09:55:00
5:15 AM,22.5,20.7,93,30.34,10.0,Calm,Calm,-,N/A,,Clear,0,2013-01-05 10:15:00
5:35 AM,22.6,21.6,96,30.35,10.0,Calm,Calm,-,N/A,,Clear,0,2013-01-05 10:35:00
5:55 AM,22.3,21.0,95,30.35,10.0,ESE,3.5,-,N/A,,Clear,120,2013-01-05 10:55:00
6:15 AM,22.8,21.7,96,30.35,10.0,Calm,Calm,-,N/A,,Clear,0,2013-01-05 11:15:00
6:35 AM,23.0,21.6,94,30.35,10.0,Calm,Calm,-,N/A,,Clear,0,2013-01-05 11:35:00
6:55 AM,22.5,21.4,96,30.36,10.0,NE,3.5,-,N/A,,Clear,50,2013-01-05 11:55:00
7:15 AM,24.8,23.4,94,30.35,10.0,Calm,Calm,-,N/A,,Clear,0,2013-01-05 12:15:00
7:35 AM,24.1,21.7,91,30.36,10.0,Calm,Calm,-,N/A,,Clear,0,2013-01-05 12:35:00
7:55 AM,23.5,22.1,94,30.36,10.0,West,3.5,-,N/A,,Clear,280,2013-01-05 12:55:00
8:15 AM,23.9,22.6,95,30.37,10.0,Calm,Calm,-,N/A,,Clear,0,2013-01-05 13:15:00
8:35 AM,24.8,23.4,94,30.36,10.0,Calm,Calm,-,N/A,,Clear,0,2013-01-05 13:35:00
8:55 AM,25.7,23.9,93,30.36,10.0,Calm,Calm,-,N/A,,Clear,0,2013-01-05 13:55:00
9:15 AM,26.8,24.4,91,30.36,10.0,Calm,Calm,-,N/A,,Clear,0,2013-01-05 14:15:00
9:35 AM,28.4,24.8,86,30.36,10.0,Calm,Calm,-,N/A,,Clear,0,2013-01-05 14:35:00
9:55 AM,29.8,25.9,85,30.35,10.0,Calm,Calm,-,N/A,,Clear,0,2013-01-05 14:55:00
10:15 AM,31.6,26.4,81,30.35,10.0,Calm,Calm,-,N/A,,Clear,0,2013-01-05 15:15:00
10:55 AM,35.4,26.6,70,30.34,10.0,Calm,Calm,-,N/A,,Clear,0,2013-01-05 15:55:00
11:15 AM,37.8,27.0,65,30.35,10.0,West,3.5,-,N/A,,Clear,260,2013-01-05 16:15:00
12:15 PM,43.2,25.5,50,30.33,10.0,Calm,Calm,-,N/A,,Clear,0,2013-01-05 17:15:00
12:35 PM,45.0,25.0,46,30.31,10.0,Calm,Calm,-,N/A,,Clear,0,2013-01-05 17:35:00
12:55 PM,46.0,21.9,39,30.29,10.0,Calm,Calm,-,N/A,,Clear,0,2013-01-05 17:55:00
1:15 PM,48.0,23.7,39,30.28,10.0,Calm,Calm,-,N/A,,Clear,0,2013-01-05 18:15:00
1:35 PM,48.2,21.4,35,30.27,10.0,Calm,Calm,-,N/A,,Clear,0,2013-01-05 18:35:00
1:55 PM,49.8,21.2,32,30.25,10.0,Calm,Calm,-,N/A,,Clear,0,2013-01-05 18:55:00
2:15 PM,50.7,23.7,35,30.25,10.0,Calm,Calm,-,N/A,,Clear,0,2013-01-05 19:15:00
2:35 PM,51.4,22.6,32,30.25,10.0,West,4.6,-,N/A,,Clear,260,2013-01-05 19:35:00
2:55 PM,52.3,19.2,27,30.23,10.0,West,4.6,-,N/A,,Clear,270,2013-01-05 19:55:00
3:15 PM,52.2,20.3,29,30.23,10.0,West,5.8,-,N/A,,Clear,260,2013-01-05 20:15:00
3:35 PM,52.2,21.9,31,30.23,10.0,West,6.9,-,N/A,,Clear,260,2013-01-05 20:35:00
3:55 PM,51.8,23.2,33,30.23,10.0,West,5.8,-,N/A,,Clear,270,2013-01-05 20:55:00
4:15 PM,50.9,25.5,37,30.24,10.0,West,6.9,-,N/A,,Clear,270,2013-01-05 21:15:00
4:35 PM,50.5,25.2,37,30.24,10.0,Calm,Calm,-,N/A,,Scattered Clouds,0,2013-01-05 21:35:00
4:55 PM,49.3,27.5,43,30.24,10.0,Calm,Calm,-,N/A,,Scattered Clouds,0,2013-01-05 21:55:00
5:15 PM,49.1,27.0,42,30.24,10.0,Calm,Calm,-,N/A,,Overcast,0,2013-01-05 22:15:00
5:55 PM,46.0,33.6,62,30.24,10.0,Calm,Calm,-,N/A,,Overcast,0,2013-01-05 22:55:00
6:15 PM,46.0,34.5,64,30.24,10.0,Calm,Calm,-,N/A,,Overcast,0,2013-01-05 23:15:00
6:35 PM,45.1,32.7,62,30.25,10.0,Calm,Calm,-,N/A,,Overcast,0,2013-01-05 23:35:00
6:55 PM,44.8,35.2,69,30.25,10.0,Calm,Calm,-,N/A,,Overcast,0,2013-01-05 23:55:00
7:15 PM,44.6,34.2,67,30.25,10.0,Calm,Calm,-,N/A,,Overcast,0,2013-01-06 00:15:00
7:35 PM,43.7,35.2,72,30.28,10.0,WSW,4.6,-,N/A,,Overcast,240,2013-01-06 00:35:00
7:55 PM,44.4,34.9,69,30.29,10.0,Calm,Calm,-,N/A,,Overcast,0,2013-01-06 00:55:00
8:15 PM,45.1,33.4,64,30.30,10.0,Calm,Calm,-,N/A,,Overcast,0,2013-01-06 01:15:00
8:55 PM,43.0,32.9,68,30.27,10.0,Calm,Calm,-,N/A,,Overcast,0,2013-01-06 01:55:00
9:15 PM,41.4,33.8,74,30.27,10.0,West,4.6,-,N/A,,Overcast,270,2013-01-06 02:15:00
9:35 PM,41.9,33.4,72,30.27,10.0,SSW,3.5,-,N/A,,Overcast,200,2013-01-06 02:35:00
9:55 PM,41.4,35.6,80,30.27,10.0,Calm,Calm,-,N/A,,Overcast,0,2013-01-06 02:55:00
10:15 PM,40.1,37.8,91,30.27,10.0,Calm,Calm,-,N/A,,Overcast,0,2013-01-06 03:15:00
10:35 PM,40.1,38.3,93,30.27,10.0,Calm,Calm,-,N/A,,Overcast,0,2013-01-06 03:35:00
10:55 PM,39.9,37.9,93,30.27,10.0,Calm,Calm,-,0.01,,Overcast,0,2013-01-06 03:55:00
11:15 PM,39.6,38.3,95,30.26,10.0,Calm,Calm,-,N/A,,Overcast,0,2013-01-06 04:15:00
11:35 PM,39.7,38.1,94,30.26,10.0,Calm,Calm,-,0.01,,Overcast,0,2013-01-06 04:35:00
11:55 PM,39.2,38.3,97,30.25,10.0,Calm,Calm,-,0.01,,Overcast,0,2013-01-06 04:55:00